Regional Weather Roundup
Issued by NWS Boston, MA

Home | Current Version | Previous Version | Text Only | Print | Product List | Glossary On
Versions: 1 2 3 4 5 6 7 8 9 10 11 12 13 14 15 16 17 18 19 20 21 22 23 24 25 26 27
000
ASUS41 KBOX 230710
RWRBOX

REGIONAL WEATHER ROUNDUP
NATIONAL WEATHER SERVICE TAUNTON MA
300 AM EDT TUE MAY 23 2017

NOTE:  "FAIR" INDICATES FEW OR NO CLOUDS BELOW 12,000 FEET WITH NO
SIGNIFICANT WEATHER AND/OR OBSTRUCTIONS TO VISIBILITY.

MAZALL-230800-
EASTERN MASSACHUSETTS

CITY           SKY/WX    TMP DP  RH WIND       PRES   REMARKS
BOSTON         CLOUDY    53  52  96 NW6       29.93F
BEVERLY        CLOUDY    53  52  96 N5        29.93S
LAWRENCE       CLOUDY    53  51  93 CALM      29.95S
BEDFORD        CLOUDY    52  49  89 NW3       29.93R
BLUE HILL        N/A     51  50  96 N7        29.91F
NORWOOD        CLOUDY    54  53  97 N5        29.92F
MARSHFIELD     CLOUDY    54  54 100 VRB5      29.91F FOG
PLYMOUTH       LGT RAIN  57  56  96 W3        29.91F
TAUNTON        CLOUDY    57  56  96 CALM      29.90F
NEW BEDFORD    CLOUDY    57  56  96 CALM      29.89F
$$

MAZALL-230800-
CAPE COD AND THE ISLANDS

CITY           SKY/WX    TMP DP  RH WIND       PRES   REMARKS
FALMOUTH         N/A    N/A N/A N/A MISG        N/A
HYANNIS        LGT RAIN  57  57 100 S13G21    29.89F FOG
CHATHAM        LGT RAIN  55  55 100 S8G18     29.92S FOG
PROVINCETOWN   LGT RAIN  55  55 100 SW5       29.91F
NANTUCKET      LGT RAIN  55  54  96 S15       29.91S FOG
MARTHAS VNYRD  CLOUDY    58  57  97 SW8       29.91F FOG
$$

MAZALL-230800-
CENTRAL AND WESTERN MASSACHUSETTS

CITY           SKY/WX    TMP DP  RH WIND       PRES   REMARKS
WORCESTER      CLOUDY    50  49  96 N3        29.94R
FITCHBURG      CLOUDY    52  50  93 NW3       29.95R
ORANGE         CLOUDY    51  51 100 NW3       29.94S
SPRINGFIELD    CLOUDY    52  50  93 CALM      29.93F FOG
WESTFIELD      FOG       51  51 100 CALM      29.94S VSB 1/4
NORTH ADAMS    CLOUDY    53  49  86 W8        29.96S
PITTSFIELD     MOCLDY    51  47  86 NW9       29.96R
$$

RIZALL-230800-
RHODE ISLAND

CITY           SKY/WX    TMP DP  RH WIND       PRES   REMARKS
PROVIDENCE     CLOUDY    57  57 100 N8        29.91F
NEWPORT        CLOUDY    57  57 100 NW5       29.89F FOG
BLOCK ISLAND   FOG       55  55 100 W6        29.92S VSB 1/2
WESTERLY       CLOUDY    58  58 100 CALM      29.91S
$$

CTZALL-230800-
CONNECTICUT

CITY           SKY/WX    TMP DP  RH WIND       PRES   REMARKS
BRADLEY INTL   CLOUDY    52  52 100 NE3       29.95S FOG
HARTFORD       CLOUDY    54  53  97 N3        29.95S
BRIDGEPORT     CLOUDY    59  55  87 NW7       29.94S
DANBURY        CLOUDY    56  56 100 N7        29.96F
GROTON         CLOUDY    57  56  96 NW6       29.91S
NEW HAVEN      CLOUDY    56  55  97 N7        29.94S
CHESTER        CLOUDY    54  54 100 NW8G14    29.94R FOG
MERIDEN        CLOUDY    54  53  97 N3        29.95R
WILLIMANTIC    CLOUDY    57  55  93 NW3       29.95R
OXFORD           N/A     55  52  88 CALM      29.97R
$$

MEZ002-015-021-024-NHZ003-005-008-011-012-014-VTZ005-008-230800-
NORTHERN NEW ENGLAND

CITY           SKY/WX    TMP DP  RH WIND       PRES   REMARKS
PORTLAND ME    CLOUDY    50  48  93 CALM      29.95F
BANGOR ME      CLOUDY    47  47 100 S5        29.96F
CONCORD NH     CLOUDY    50  48  93 N3        29.94F
MANCHESTER NH  CLOUDY    51  48  89 NW7       29.93S FOG
NASHUA NH      CLOUDY    51  51 100 NW5       29.95S
PORTSMOUTH NH  CLOUDY    51  50  99 CALM      29.92F FOG
JAFFREY NH     CLOUDY    49  49 100 CALM      29.94F FOG
KEENE NH       CLOUDY    52  50  93 CALM      29.95S
BURLINGTON VT  CLOUDY    54  50  86 CALM      29.93F
MT. WASHINGTON FOG       37  37 100 W48         N/A  VSB 1/16WCI  22
$$

NYZ052-076-230800-
EASTERN NEW YORK

CITY           SKY/WX    TMP DP  RH WIND       PRES   REMARKS
ALBANY         MOCLDY    52  46  80 NW6       29.98F
NEW YORK CITY  CLOUDY    61  57  87 N8        29.92F
$$

ANZALL-230800-
MARINE OBSERVATIONS

STATION/POSITION TIME  TEMP    WIND        PRES    VSBY  WAVE
                       AIR SEA DIR/SP/G                  HT/PER
                 (UTC) (F)     (DEG/KT/KT) (MB)    (MI)  (FT/S)
BOSTON BUOY      0550   53 54  360/  8/  8 1012.7          2/ 4
BUZZARDS BAY     0600   55     250/ 10/ 10 1013.4S
NANTUCKET SOUND  0650      53              1012.4R         3/ 4
MASS BAY-STELLWA 0604   53 53   20/  8/ 10 1012.8F         3/ 4
ISLE OF SHOALS   0600   50      80/  4/  5 1013.7F
S OF BLOCK IS    0655      53                N/A           4/ 6
$$

......................KEY.........................
  SKY/WX - SKY CONDITION/PRESENT WEATHER
  TMP    - TEMPERATURE IN FAHRENHEIT
  DWPT   - DEWPOINT IN FAHRENHEIT
  RH     - RELATIVE HUMIDITY IN PERCENT
  WIND   - DIRECTION AND SPEED IN MPH
  PRES   - MEAN SEA LEVEL PRESSURE IN INCHES OF HG
  WCI    - WIND CHILL INDEX
  VSB    - VISIBILITY IN MILES
  HX     - HEAT INDEX
  TC     - TEMPERATURE IN CELSIUS
  VRB    - VARIABLE WIND DIRECTION
  N/A    - NOT AVAILABLE




USA.gov is the U.S. government's official web portal to all federal, state and local government web resources and services.